This is the latest recevied weather packets stored in our database for station/object W4NDF-13. If no packets are shown the sender has not sent any weather packets the latest 10 day(s).
| Time | Temp. | Humidity | Pressure | Rain* | Wind** | Luminosity | Snow |
|---|---|---|---|---|---|---|---|
| 1777961094 | 17.78° C | 81% | 1014.6 hPa | 0 mm | - | 0 W/m² | - |
| 1777960790 | 17.78° C | 80% | 1014.7 hPa | 0 mm | - | 0 W/m² | - |
| 1777960486 | 17.78° C | 79% | 1014.5 hPa | 0 mm | - | 0 W/m² | - |
| 1777960184 | 17.78° C | 79% | 1014.8 hPa | 0 mm | - | 0 W/m² | - |
| 1777959881 | 18.33° C | 78% | 1014.8 hPa | 0 mm | - | 0 W/m² | - |
| 1777959579 | 18.33° C | 78% | 1014.6 hPa | 0 mm | - | 0 W/m² | - |
| 1777959276 | 18.33° C | 77% | 1014.7 hPa | 0 mm | - | 0 W/m² | - |
| 1777958972 | 18.33° C | 77% | 1014.6 hPa | 0 mm | - | 0 W/m² | - |
| 1777958669 | 18.89° C | 76% | 1014.4 hPa | 0 mm | - | 0 W/m² | - |
| 1777958367 | 18.89° C | 75% | 1014.3 hPa | 0 mm | - | 0 W/m² | - |
| 1777958064 | 18.89° C | 74% | 1014.2 hPa | 0 mm | - | 0 W/m² | - |
| 1777957762 | 19.44° C | 74% | 1014.3 hPa | 0 mm | - | 0 W/m² | - |
| 1777957460 | 19.44° C | 73% | 1014.3 hPa | 0 mm | - | 0 W/m² | - |
| 1777957156 | 19.44° C | 73% | 1014.4 hPa | 0 mm | - | 0 W/m² | - |
| 1777956853 | 19.44° C | 73% | 1014.8 hPa | 0 mm | - | 0 W/m² | - |
| 1777956550 | 19.44° C | 73% | 1014.9 hPa | 0 mm | - | 0 W/m² | - |
| 1777956247 | 19.44° C | 73% | 1014.9 hPa | 0 mm | - | 0 W/m² | - |
| 1777955943 | 19.44° C | 72% | 1014.8 hPa | 0 mm | - | 0 W/m² | - |
| 1777955640 | 19.44° C | 72% | 1015 hPa | 0 mm | - | 0 W/m² | - |
| 1777955336 | 19.44° C | 72% | 1015 hPa | 0 mm | - | 0 W/m² | - |
| 1777955033 | 19.44° C | 71% | 1014.8 hPa | 0 mm | - | 0 W/m² | - |
| 1777954730 | 19.44° C | 71% | 1015 hPa | 0 mm | - | 0 W/m² | - |
| 1777954427 | 20° C | 70% | 1015.1 hPa | 0 mm | - | 0 W/m² | - |
| 1777954124 | 19.44° C | 70% | 1015.1 hPa | 0 mm | - | 0 W/m² | - |
| 1777953822 | 20° C | 70% | 1015 hPa | 0 mm | - | 0 W/m² | - |
* Rain latest hour (hover to see other rain measurements)
** Current wind speed in m/s (hover to see current wind gust speed)